Location: Audruicq
(50.8780°N, 2.0797°E)
Time: 11:19:34
(UTC+00:00)

ISS - Pass Details

Date: 15 May 2026
Orbit: 413 x 423 km, 51.6° (Epoch: 6 June)

Event Time Altitude Azimuth Distance (km) Brightness Sun altitude
Rises 22:56:58 0° 285° (WNW) 2,354 0.4 -19.2°
Reaches altitude 10° 22:59:06 10° 280° (W) 1,490 -0.7 -19.2°
Enters shadow 23:01:23 35° 252° (WSW) 696 -2.8 -19.3°
